• In Kazakhstan
  • List of Countries
  • For 7 days
  • Water Temperature
  • Satellite Maps
  • Weather Map
  • News
  • Weather Widgets
  • user-avatar
    Login

    Hourly Weather Grochowce

    Today, 22 July, Monday

    Time Temperature Precipitation Wind Pressure Humidity
    00:00 +17°C° 0 mm 2 mps 741 mmHg 95%
    01:00 +16°C° 0 mm 2 mps 742 mmHg 94%
    02:00 +16°C° 0 mm 2 mps 742 mmHg 94%
    03:00 +16°C° 0 mm 2 mps 742 mmHg 94%
    04:00 +16°C° 0 mm 3 mps 742 mmHg 95%
    05:00 +16°C° 0 mm 3 mps 742 mmHg 96%
    06:00 +17°C° 0 mm 3 mps 742 mmHg 92%
    07:00 +19°C° 0 mm 3 mps 743 mmHg 89%
    08:00 +20°C° 0 mm 4 mps 743 mmHg 86%
    09:00 +21°C° 0 mm 4 mps 743 mmHg 79%
    10:00 +22°C° 0 mm 4 mps 743 mmHg 73%
    11:00 +23°C° 0 mm 4 mps 743 mmHg 67%
    12:00 +25°C° 0.1 mm 4 mps 743 mmHg 64%
    13:00 +25°C° 0.1 mm 4 mps 743 mmHg 61%
    14:00 +26°C° 0.1 mm 4 mps 743 mmHg 58%
    15:00 +26°C° 0 mm 4 mps 743 mmHg 58%
    16:00 +26°C° 0 mm 4 mps 743 mmHg 58%
    17:00 +26°C° 0 mm 3 mps 743 mmHg 59%
    18:00 +24°C° 0.1 mm 3 mps 742 mmHg 67%
    19:00 +21°C° 0.1 mm 2 mps 742 mmHg 75%
    20:00 +19°C° 0.1 mm 2 mps 742 mmHg 83%
    21:00 +19°C° 0.1 mm 2 mps 742 mmHg 85%
    22:00 +19°C° 0.1 mm 1 mps 742 mmHg 86%
    23:00 +19°C° 0.1 mm 1 mps 743 mmHg 88%

    Tomorrow, 23 July, Tuesday

    Time Temperature Precipitation Wind Pressure Humidity
    00:00 +18°C° 0.1 mm 1 mps 742 mmHg 90%
    01:00 +18°C° 0.1 mm 1 mps 742 mmHg 91%
    02:00 +18°C° 0.1 mm 1 mps 742 mmHg 92%
    03:00 +16°C° 0 mm 1 mps 742 mmHg 92%
    04:00 +16°C° 0 mm 1 mps 742 mmHg 92%
    05:00 +15°C° 0 mm 1 mps 742 mmHg 93%
    06:00 +16°C° 0 mm 1 mps 742 mmHg 89%
    07:00 +17°C° 0 mm 2 mps 742 mmHg 86%
    08:00 +18°C° 0 mm 2 mps 742 mmHg 83%
    09:00 +20°C° 0.1 mm 2 mps 742 mmHg 78%
    10:00 +21°C° 0.1 mm 3 mps 742 mmHg 72%
    11:00 +22°C° 0.1 mm 3 mps 742 mmHg 67%
    12:00 +22°C° 0.3 mm 4 mps 742 mmHg 66%
    13:00 +23°C° 0.3 mm 4 mps 742 mmHg 65%
    14:00 +23°C° 0.3 mm 5 mps 742 mmHg 65%
    15:00 +22°C° 0.4 mm 5 mps 742 mmHg 68%
    16:00 +22°C° 0.4 mm 5 mps 742 mmHg 72%
    17:00 +22°C° 0.4 mm 4 mps 742 mmHg 76%
    18:00 +20°C° 0.2 mm 4 mps 741 mmHg 80%
    19:00 +19°C° 0.2 mm 3 mps 741 mmHg 84%
    20:00 +18°C° 0.2 mm 3 mps 741 mmHg 88%
    21:00 +17°C° 0 mm 2 mps 741 mmHg 90%
    22:00 +16°C° 0 mm 2 mps 742 mmHg 92%
    23:00 +15°C° 0 mm 1 mps 742 mmHg 93%

    Day after tomorrow, 24 July, Wednesday

    Time Temperature Precipitation Wind Pressure Humidity
    00:00 +15°C° 0 mm 1 mps 742 mmHg 94%
    01:00 +14°C° 0 mm 1 mps 742 mmHg 94%
    02:00 +14°C° 0 mm 1 mps 742 mmHg 94%
    03:00 +14°C° 0 mm 1 mps 741 mmHg 95%
    04:00 +14°C° 0 mm 1 mps 741 mmHg 95%
    05:00 +14°C° 0 mm 1 mps 741 mmHg 96%
    06:00 +15°C° 0 mm 1 mps 741 mmHg 93%
    07:00 +16°C° 0 mm 1 mps 741 mmHg 91%
    08:00 +19°C° 0 mm 1 mps 741 mmHg 88%
    09:00 +19°C° 0 mm 1 mps 741 mmHg 87%
    10:00 +20°C° 0 mm 1 mps 741 mmHg 85%
    11:00 +19°C° 0 mm 2 mps 742 mmHg 84%
    12:00 +20°C° 0.1 mm 2 mps 741 mmHg 84%
    13:00 +20°C° 0.1 mm 2 mps 741 mmHg 83%
    14:00 +20°C° 0.1 mm 2 mps 741 mmHg 83%
    15:00 +21°C° 0 mm 2 mps 741 mmHg 80%
    16:00 +23°C° 0 mm 2 mps 741 mmHg 76%
    17:00 +24°C° 0 mm 2 mps 741 mmHg 73%
    18:00 +21°C° 0 mm 2 mps 741 mmHg 79%
    19:00 +21°C° 0 mm 1 mps 741 mmHg 85%
    20:00 +20°C° 0 mm 1 mps 741 mmHg 91%
    21:00 +19°C° 0 mm 1 mps 741 mmHg 92%
    22:00 +16°C° 0 mm 0 mps 741 mmHg 93%
    23:00 +16°C° 0 mm 0 mps 742 mmHg 94%

    25 July, Thursday

    Time Temperature Precipitation Wind Pressure Humidity
    00:00 +15°C° 0 mm 0 mps 742 mmHg 94%
    01:00 +15°C° 0 mm 0 mps 742 mmHg 94%
    02:00 +16°C° 0 mm 1 mps 742 mmHg 95%
    03:00 +14°C° 0 mm 0 mps 742 mmHg 95%
    04:00 +14°C° 0 mm 0 mps 742 mmHg 95%
    05:00 +14°C° 0 mm 0 mps 742 mmHg 95%
    06:00 +18°C° 0 mm 1 mps 742 mmHg 91%
    07:00 +19°C° 0 mm 1 mps 742 mmHg 88%
    08:00 +21°C° 0 mm 1 mps 742 mmHg 84%
    09:00 +22°C° 0 mm 1 mps 743 mmHg 76%
    10:00 +24°C° 0 mm 2 mps 743 mmHg 69%
    11:00 +25°C° 0 mm 2 mps 743 mmHg 62%
    12:00 +26°C° 0 mm 3 mps 743 mmHg 58%
    13:00 +27°C° 0 mm 3 mps 743 mmHg 55%
    14:00 +27°C° 0 mm 3 mps 742 mmHg 51%
    15:00 +27°C° 0 mm 3 mps 742 mmHg 52%
    16:00 +27°C° 0 mm 3 mps 742 mmHg 53%
    17:00 +27°C° 0 mm 3 mps 742 mmHg 54%
    18:00 +25°C° 0 mm 2 mps 742 mmHg 62%
    19:00 +23°C° 0 mm 2 mps 742 mmHg 70%
    20:00 +22°C° 0 mm 1 mps 741 mmHg 78%
    21:00 +21°C° 0 mm 1 mps 742 mmHg 80%
    22:00 +20°C° 0 mm 1 mps 742 mmHg 83%
    23:00 +17°C° 0 mm 0 mps 742 mmHg 86%

    26 July, Friday

    Time Temperature Precipitation Wind Pressure Humidity
    00:00 +16°C° 0 mm 0 mps 742 mmHg 88%
    01:00 +16°C° 0 mm 0 mps 742 mmHg 90%
    02:00 +15°C° 0 mm 0 mps 742 mmHg 92%
    03:00 +15°C° 0 mm 0 mps 742 mmHg 92%
    04:00 +14°C° 0 mm 0 mps 742 mmHg 93%
    05:00 +14°C° 0 mm 0 mps 741 mmHg 93%
    06:00 +18°C° 0 mm 1 mps 741 mmHg 87%
    07:00 +19°C° 0 mm 1 mps 741 mmHg 82%
    08:00 +21°C° 0 mm 1 mps 741 mmHg 76%
    09:00 +21°C° 0 mm 2 mps 741 mmHg 72%
    10:00 +24°C° 0 mm 2 mps 742 mmHg 68%
    11:00 +26°C° 0 mm 3 mps 742 mmHg 63%
    12:00 +26°C° 0 mm 3 mps 741 mmHg 63%
    13:00 +26°C° 0 mm 3 mps 741 mmHg 63%
    14:00 +27°C° 0 mm 3 mps 741 mmHg 63%
    15:00 +27°C° 0 mm 3 mps 741 mmHg 63%
    16:00 +27°C° 0 mm 3 mps 740 mmHg 64%
    17:00 +27°C° 0 mm 3 mps 740 mmHg 64%
    18:00 +26°C° 0.1 mm 3 mps 740 mmHg 72%
    19:00 +24°C° 0.1 mm 3 mps 740 mmHg 79%
    20:00 +23°C° 0.1 mm 2 mps 740 mmHg 87%
    21:00 +21°C° 0 mm 2 mps 740 mmHg 90%
    22:00 +20°C° 0 mm 2 mps 740 mmHg 92%
    23:00 +19°C° 0 mm 2 mps 740 mmHg 95%

    27 July, Saturday

    Time Temperature Precipitation Wind Pressure Humidity
    00:00 +19°C° 0 mm 2 mps 740 mmHg 95%
    01:00 +18°C° 0 mm 2 mps 740 mmHg 95%
    02:00 +19°C° 0 mm 1 mps 740 mmHg 96%
    03:00 +19°C° 0 mm 1 mps 740 mmHg 96%
    04:00 +18°C° 0 mm 1 mps 740 mmHg 96%
    05:00 +18°C° 0 mm 1 mps 739 mmHg 96%
    06:00 +19°C° 0 mm 2 mps 739 mmHg 92%
    07:00 +20°C° 0 mm 2 mps 739 mmHg 88%
    08:00 +21°C° 0 mm 2 mps 739 mmHg 84%
    09:00 +24°C° 0 mm 3 mps 739 mmHg 78%
    10:00 +26°C° 0 mm 3 mps 739 mmHg 71%
    11:00 +27°C° 0 mm 4 mps 740 mmHg 64%
    12:00 +28°C° 0 mm 4 mps 739 mmHg 62%
    13:00 +28°C° 0 mm 4 mps 739 mmHg 60%
    14:00 +29°C° 0 mm 4 mps 739 mmHg 58%
    15:00 +29°C° 0 mm 4 mps 738 mmHg 58%
    16:00 +28°C° 0 mm 4 mps 738 mmHg 59%
    17:00 +28°C° 0 mm 4 mps 738 mmHg 60%
    18:00 +26°C° 0 mm 3 mps 738 mmHg 67%
    19:00 +25°C° 0 mm 3 mps 738 mmHg 75%
    20:00 +22°C° 0 mm 3 mps 738 mmHg 82%
    21:00 +21°C° 0 mm 2 mps 738 mmHg 85%
    22:00 +20°C° 0 mm 2 mps 738 mmHg 87%
    23:00 +19°C° 0 mm 2 mps 738 mmHg 90%
    Show more